Preview of NWS' New Version of Forecast
This preview is not operational and should not be used for support decisions.
Latest weather observations around

El Dorado, South Arkansas Regional at Goodwin Field Airport (KELD)

Using English Units (Switch to International System of Units)
Date/ Time (CDT) Wind (mph) Vis. (mi) Weather Sky Cond. Temp (°F) Rel. Humidity Wind Chill (°F) Heat Index (°F) Pressure Precip. (in)
Air Dwpt 6 hour Altimeter (inHg) Sea level (inHg) 1 hr 3 hr 6 hr
Max Min
Jun 18 06:53 Calm 10 Clear CLR 73 71     94%   74 30.08 30.07      
Jun 18 05:53 ENE 5 10 Clear CLR 71 70     96%   72 30.07 30.06      
Jun 18 04:53 Calm 10 Clear CLR 72 71     97%   73 30.06 30.05      
Jun 18 03:53 SE 3 10 Clear CLR 73 71     94%   74 30.05 30.03      
Jun 18 02:53 Calm 10 Clear CLR 74 72     94%   75 30.05 30.04      
Jun 18 01:53 Calm 10 Clear CLR 75 72     90%   76 30.06 30.05      
Jun 18 00:53 SSE 6 10 Clear CLR 77 72     84%   78 30.07 30.06      
Jun 17 23:53 SSE 5 10 Clear CLR 78 72     82%   79 30.08 30.06      
Jun 17 22:53 SSE 5 10 Mostly Cloudy FEW040 SCT048 BKN060 80 72     76%   84 30.06 30.05      
Jun 17 21:53 SE 5 10 Clear CLR 82 71     69%   86 30.04 30.03      
Jun 17 20:53 SSE 8 10 Clear CLR 84 69     61%   88 30.03 30.02      
Jun 17 19:53 SSE 7 10 Mostly Clear FEW055 86 72     63%   92 30.01 29.99      
Jun 17 18:53 SSE 6 10 Mostly Clear FEW049 89 73     59%   97 29.99 29.98     0
Jun 17 17:53 ESE 10 10 Mostly Clear FEW047 91 74     57%   101 29.99 29.98 0    
Jun 17 16:53 SSE 5 10 Mostly Clear FEW110 91 73     56%   100 30 29.98      
Jun 17 15:53 ESE 11 10 Mostly Cloudy BKN090 92 74     56%   102 30.01 30 0 0  
Jun 17 14:53 ESE 9 10 Light Rain SCT044 BKN060 88 74     63%   97 30.02 30 0    
Jun 17 13:53 SE 8 10 Mostly Cloudy FEW045 BKN055 90 73     58%   98 30.03 30.02      
Jun 17 12:53 E 13 10 Mostly Clear FEW043 91 73     56%   100 30.05 30.03      
Jun 17 11:53 SE 13 10 Partly Cloudy FEW036 SCT050 89 73     59%   97 30.06 30.04      
Jun 17 10:53 SSE 9 10 Mostly Clear FEW032 87 74     65%   95 30.07 30.05      
Jun 17 09:53 SSE 11 10 Clear CLR 86 74     67%   94 30.06 30.05      
Jun 17 08:53 6 10 Clear CLR 83 76     79%   91 30.06 30.05      
Jun 17 07:53 SE 5 10 Clear CLR 78 75     90%   80 30.05 30.03      
Jun 17 06:53 Calm 10 Clear CLR 74 74     100%   76 30.04 30.02      
Jun 17 05:53 Calm 10 Clear CLR 73 73     100%   75 30.02 30.01      
Jun 17 04:53 SSE 3 10 Clear CLR 74 73     97%   76 30 29.99      
Jun 17 03:53 S 3 10 Clear CLR 74 73     97%   76 30 29.98      
Jun 17 02:53 SE 5 10 Clear CLR 75 74     96%   77 30 29.98      
Jun 17 01:53 SSE 3 10 Clear CLR 76 74     94%   78 30 29.98      
Jun 17 00:53 Calm 10 Clear CLR 77 75     94%   79 29.99 29.98      
Jun 16 23:53 SE 5 10 Clear CLR 79 75     88%   83 30 29.98      
Jun 16 22:53 SE 6 10 Clear CLR 81 75     82%   87 29.98 29.97      
Jun 16 21:53 SE 6 10 Clear CLR 82 75     79%   89 29.97 29.96      
Jun 16 20:53 SE 7 10 Clear CLR 85 74     70%   92 29.95 29.94      
Jun 16 19:53 ESE 6 10 Clear CLR 87 74     65%   95 29.93 29.92      
Jun 16 18:53 E 9 10 Partly Cloudy SCT055 91 73     56%   100 29.93 29.91      
Jun 16 17:53 E 7 10 Mostly Clear FEW060 93 72     51%   101 29.92 29.91      
Jun 16 16:53 SE 7 10 Mostly Clear FEW060 92 71     51%   99 29.93 29.92      
Jun 16 15:53 SE 10 10 Clear CLR 94 72     49%   102 29.94 29.93      
Jun 16 14:53 SE 6 10 Partly Cloudy FEW060 SCT075 93 72     51%   101 29.95 29.94      
Jun 16 13:53 6 10 Mostly Clear FEW070 93 72     51%   101 29.96 29.95      
Jun 16 12:53 SE 9 10 Clear CLR 93 73     52%   102 29.98 29.97      
Jun 16 11:53 ESE 7 10 Mostly Clear FEW042 89 72     57%   96 30 29.99      
Jun 16 10:53 3 10 Clear CLR 88 72     59%   95 30 29.99      
Jun 16 09:53 Calm 10 Clear CLR 86 75     70%   95 30.01 29.99      
Jun 16 08:53 SW 7 8 Clear CLR 83 76     79%   91 30.01 30      
Jun 16 07:53 S 3 10 Clear CLR 78 75     90%   80 30 29.99      
Jun 16 06:53 Calm 10 Clear CLR 75 74     96%   77 29.99 29.98      
Jun 16 05:53 Calm 10 Clear CLR 73 73     100%   75 29.99 29.98      
Jun 16 04:53 SSE 5 10 Clear CLR 73 73     100%   75 29.97 29.96      
Jun 16 03:53 Calm 10 Clear CLR 74 73     97%   76 29.96 29.94      
Jun 16 02:53 SE 3 10 Clear CLR 75 74     96%   77 29.96 29.94      
Jun 16 01:53 Calm 10 Clear CLR 76 74     94%   78 29.96 29.95      
Jun 16 00:53 S 3 10 Clear CLR 77 74     90%   79 29.97 29.95      
Jun 15 23:53 S 5 10 Clear CLR 78 74     87%   80 29.96 29.95      
Jun 15 22:53 Calm 10 Clear CLR 77 75     94%   79 29.96 29.94      
Jun 15 21:53 ESE 5 10 Clear CLR 79 75     88%   83 29.94 29.93      
Jun 15 20:53 ESE 3 10 Clear CLR 81 76     85%   87 29.92 29.91      
Jun 15 19:53 SE 6 10 Clear CLR 88 73     61%   96 29.91 29.9      
Jun 15 18:53 SE 6 10 Clear CLR 91 73     56%   100 29.9 29.89      
Jun 15 17:53 SE 7 10 Partly Cloudy SCT055 91 71     52%   98 29.91 29.89      
Jun 15 16:53 SE 6 10 Mostly Clear FEW055 FEW085 94 70     46%   100 29.93 29.91      
Jun 15 15:53 S 8 10 Mostly Clear FEW055 94 71     48%   101 29.93 29.92      
Jun 15 14:53 ESE 6 10 Partly Cloudy SCT055 SCT070 90 71     54%   96 29.95 29.94      
Jun 15 13:53 7 10 Partly Cloudy SCT055 SCT070 92 71     51%   99 29.98 29.96      
Jun 15 12:53 SE 6 10 Clear CLR 91 73     56%   100 29.99 29.98      
Jun 15 11:53 WSW 5 10 Mostly Cloudy BKN039 89 74     61%   98 30.01 30      
Jun 15 10:53 3 10 Clear CLR 87 74     65%   95 30.02 30      
Jun 15 09:53 SW 7 10 Clear CLR 85 74     70%   92 30.02 30.01      
Jun 15 08:53 5 10 Clear CLR 82 75     79%   89 30.03 30.01      
Jun 15 07:53 SSW 5 10 Clear CLR 77 74     90%   79 30.02 30.01      
Jun 15 06:53 Calm 10 Clear CLR 73 73     100%   75 30.01 29.99      
May 15 03:53 Calm 10 Clear CLR 68 68     100%     29.93 29.92      
May 14 11:53 SSW 9 10 Clear CLR 87 66     50%   89 30.02 30.01      
May 14 06:53 Calm 10 Clear CLR 68 68     100%     30.03 30.01      
May 13 11:33 SSW 7 10 Mostly Cloudy BKN026 82 72     72%   87 30.11        
May 13 03:53 SSE 3 10 Clear CLR 69 68     96%     30.02 30.01      
May 12 02:53 S 8 10 Clear CLR 71 67     87%   72 29.99 29.98 0    
May 11 23:53 S 7 10 Light Rain CLR 74 66     76%   75 29.99 29.98 0    
May 11 16:53 SSW 10 10 Light Rain BKN060 88 64     45%   89 29.96 29.95 0    
Jun 08 23:53 Calm 10 Clear CLR 63 59     87%     29.95 29.93      
Jun 06 05:53 N 6 10 Cloudy OVC004 71 70     96%   72 29.78 29.76      
Jun 06 01:25 N 3 10 Cloudy SCT006 BKN011 OVC030 71 69     93%   72 29.78